Theta_e
314 314 314 314 315 315 315 315 314 314 313 315 315 315 316 315 314 314 315 316 315 315 315 314 313 312 313 313 317 321 330 332 323 321 324 328 328 328 330 330 330 334 335 332
314 313 314 313 312 313 315 314 314 313 312 314 315 315 315 315 315 315 315 316 316 316 316 314 313 313 312 312 312 314 321 327 331 320 321 325 325 331 329 329 330 333 336 336
312 313 312 313 311 312 313 313 314 314 312 312 313 314 315 315 314 315 314 315 315 315 314 313 311 311 312 313 312 311 312 315 324 329 322 330 333 334 331 332 332 329 331 333
312 308 311 312 312 312 312 312 313 313 314 313 312 312 316 315 314 312 312 312 312 312 312 311 311 311 311 311 312 311 311 311 312 323 330 327 322 328 326 327 324 324 326 331
311 310 311 313 312 312 312 312 312 313 313 314 313 312 313 312 313 313 313 313 313 313 312 312 311 312 312 312 311 311 312 312 311 316 326 329 324 327 328 330 333 332 327 327
311 308 311 312 309 311 310 311 312 312 313 312 312 313 313 314 313 312 313 314 314 312 312 311 312 312 313 313 313 313 313 312 311 311 314 323 328 325 328 328 329 329 331 331
311 310 310 309 310 310 312 312 313 313 313 313 309 312 313 314 310 312 313 315 313 312 312 312 312 312 313 313 314 314 315 315 314 312 311 314 324 325 325 327 327 327 328 327
311 311 311 310 312 312 312 313 315 321 315 314 308 312 313 312 312 309 309 313 312 312 312 311 312 312 313 313 314 314 314 315 315 314 312 313 318 323 325 324 324 327 326 326
311 311 309 309 309 311 312 312 311 312 308 316 313 313 313 311 311 312 311 312 313 312 311 311 312 312 313 313 313 313 313 314 315 315 315 314 314 318 324 326 326 324 325 324
310 312 310 308 309 309 311 311 311 312 321 318 313 313 313 313 311 312 312 313 312 310 310 310 311 312 312 312 312 312 312 313 315 317 318 320 321 322 326 325 324 323 322 320
310 312 310 309 310 311 310 310 311 311 315 324 317 313 312 313 314 313 313 313 311 310 310 310 311 311 311 311 312 312 312 312 312 313 314 315 316 316 315 315 314 314 313 313
310 313 313 311 308 308 310 311 311 312 313 311 313 314 310 310 313 314 314 312 311 310 309 309 309 310 310 311 311 311 311 311 311 311 311 311 311 311 312 312 311 311 310 310
309 316 316 311 310 310 310 310 312 312 314 318 317 313 311 310 311 314 313 310 309 309 308 308 309 310 309 310 309 310 310 310 310 310 310 310 310 310 310 310 310 310 309 308
309 315 314 313 311 312 311 311 310 311 317 312 314 313 312 312 311 313 312 310 310 309 308 308 309 308 309 308 308 309 309 309 309 309 308 308 308 307 306 305 305 304 303 302
311 314 312 312 311 313 314 312 311 310 311 312 312 312 312 313 312 313 313 311 310 309 308 307 307 308 307 307 307 307 306 306 305 304 303 303 302 301 300 299 298 298 298 298
310 313 311 311 311 311 313 313 312 311 311 311 311 311 312 311 313 313 312 310 309 308 307 306 306 306 306 305 305 304 303 301 301 300 299 298 298 298 297 297 297 297 297 296
312 311 313 319 312 312 312 311 312 311 311 311 311 312 312 311 312 313 312 311 310 308 307 305 306 305 304 303 301 300 299 298 298 298 297 297 297 297 296 296 296 296 296 296
308 309 315 316 314 315 313 311 310 311 311 311 311 311 311 311 310 311 311 311 310 308 306 305 304 303 302 300 299 298 298 297 297 297 297 297 296 296 296 296 296 295 295 295
309 311 315 315 316 314 313 308 310 311 311 310 310 310 310 309 309 310 310 311 310 308 305 304 303 302 299 298 297 297 297 296 296 296 296 296 296 296 295 295 295 294 294 294
307 308 313 314 316 317 312 307 308 310 313 311 311 310 310 307 310 311 308 308 307 305 304 303 301 299 297 296 296 296 296 295 296 295 295 295 294 294 293 293 293 292 292 292
308 309 313 315 316 315 308 303 307 314 315 302 305 307 308 307 308 307 305 304 304 303 302 300 298 297 296 296 296 297 299 295 294 294 293 292 292 292 291 291 291 291 291 291
309 311 310 312 313 314 302 305 311 307 301 303 304 305 306 305 302 301 300 301 301 300 298 297 296 296 297 299 298 295 294 293 292 291 291 291 291 291 291 291 291 291 291 291
309 311 312 311 311 304 303 303 305 302 302 301 301 302 303 302 299 298 298 297 297 297 296 296 296 298 296 294 293 293 292 291 291 291 291 290 290 290 290 290 290 290 290 291
304 301 306 308 308 304 301 301 302 302 302 302 302 302 302 300 297 296 296 296 296 296 295 295 296 294 293 292 291 290 291 290 290 289 289 289 289 289 289 289 290 290 290 290
303 302 305 305 301 300 301 302 301 300 300 301 301 301 299 299 297 297 296 296 296 295 294 294 293 291 291 290 290 290 289 289 289 289 289 289 289 289 288 288 289 289 289 289
298 302 305 307 304 304 302 303 302 301 300 300 300 298 297 298 297 296 296 295 294 294 292 291 290 290 290 290 289 289 289 289 289 289 289 289 289 289 289 289 289 288 288 288
Wind_Speed
13 10 15 18 17 5 14 14 11 9 3 6 13 15 14 15 11 11 13 13 13 14 12 11 14 16 19 20 22 24 23 23 26 28 29 30 30 29 28 27 25 23 22 21
7 15 13 5 7 6 10 15 9 5 3 4 6 13 13 17 19 18 18 17 16 15 14 12 16 20 23 25 26 27 26 25 27 29 31 30 29 30 29 28 28 26 25 24
12 7 10 8 6 9 6 12 10 1 5 2 6 11 16 14 19 17 16 16 15 12 14 12 14 17 20 21 25 31 32 29 27 28 28 29 27 27 29 29 30 29 26 26
8 4 10 12 13 7 7 3 7 9 7 6 3 5 4 9 11 11 15 16 15 11 12 13 13 13 16 19 20 22 24 25 28 27 23 25 29 30 28 26 27 27 25 25
5 8 12 13 11 12 3 6 6 5 3 4 6 5 5 2 9 11 12 9 8 7 8 7 8 10 11 12 15 16 18 20 22 27 26 25 26 23 19 19 21 22 21 21
4 0 3 3 6 2 14 9 8 4 2 5 10 8 6 7 3 4 9 8 8 6 6 6 6 6 6 5 6 7 9 11 15 20 23 23 21 21 17 18 19 20 20 18
4 4 2 4 9 6 6 14 4 5 5 6 3 3 12 2 3 4 9 8 8 8 7 6 6 6 6 5 4 4 4 6 9 15 20 21 20 20 20 19 18 16 17 16
11 7 10 8 2 7 13 15 5 6 6 3 3 7 5 1 4 7 6 6 8 9 8 8 7 7 6 6 5 4 4 5 7 10 15 18 20 19 16 16 17 18 19 16
12 8 2 1 1 5 7 6 3 5 2 0 7 7 8 8 6 7 10 9 8 8 7 8 8 7 6 5 5 5 4 5 6 8 9 11 13 14 14 13 13 13 15 16
3 4 1 3 2 1 5 9 3 3 4 5 5 7 9 6 11 10 11 13 10 8 8 8 8 7 6 6 5 5 5 5 6 6 6 6 7 8 9 10 11 11 12 12
6 3 2 3 9 13 5 5 5 3 3 4 3 5 4 4 10 13 14 14 12 10 9 9 9 8 7 7 7 8 7 7 7 8 8 8 8 8 7 7 6 6 6 6
2 4 4 8 3 3 5 11 12 5 6 6 2 6 2 4 1 14 15 14 11 11 10 10 10 10 10 10 10 10 11 11 10 10 10 10 10 8 7 6 5 4 4 6
9 4 4 2 2 2 7 10 15 13 3 6 5 8 2 4 5 10 16 15 14 13 12 12 13 13 12 12 12 12 12 12 12 11 10 8 7 5 4 2 2 3 5 8
12 3 10 14 4 9 8 12 11 11 4 15 11 20 5 7 10 13 14 15 16 16 15 15 15 15 14 14 13 13 13 12 11 9 7 5 4 2 1 2 3 5 7 9
6 6 6 13 4 2 4 12 14 17 23 12 23 21 16 9 12 20 18 15 17 19 20 18 17 16 16 15 14 13 12 11 9 8 6 4 2 1 1 3 5 7 9 11
4 2 2 2 3 2 1 7 18 22 24 20 25 20 9 3 16 16 21 21 24 22 21 19 20 19 18 16 14 13 11 9 8 6 4 2 1 2 4 6 8 10 12 15
7 6 3 2 3 5 4 22 13 16 20 19 21 29 7 7 12 17 23 28 29 25 24 24 22 21 18 16 14 13 10 8 6 4 2 0 2 4 6 9 11 14 16 18
6 5 2 4 3 6 7 3 19 20 18 18 21 21 10 10 24 28 32 34 27 28 27 25 24 22 19 16 14 11 8 6 4 1 1 3 6 8 10 13 16 18 20 22
2 4 3 5 7 9 15 3 7 10 21 20 22 23 21 11 5 17 22 23 28 29 27 26 24 21 19 16 14 11 8 6 3 3 5 7 10 12 15 17 19 22 24 25
3 2 5 3 6 9 3 4 5 6 17 10 18 20 12 14 8 11 19 20 24 27 30 29 25 22 19 16 13 10 6 2 4 7 9 11 14 17 20 22 25 27 29 31
5 3 13 12 6 7 4 8 8 9 3 3 2 5 7 7 11 6 16 24 27 29 29 27 24 21 17 13 8 3 6 9 8 10 12 15 18 20 23 26 27 29 31 33
10 9 4 2 7 14 9 6 9 1 1 2 2 3 10 11 7 15 21 27 30 30 28 25 22 19 12 7 9 10 8 8 10 13 15 18 20 23 25 27 28 30 32 34
6 3 5 8 5 3 17 3 10 1 3 3 4 5 10 15 17 21 27 29 28 27 26 23 18 12 12 11 9 8 9 11 13 15 18 20 22 24 26 28 30 31 31 32
6 4 2 2 4 2 4 9 7 5 9 9 9 7 13 19 23 25 28 29 28 25 23 19 15 13 11 9 8 9 10 12 14 16 19 22 24 26 27 29 31 32 31 32
2 10 5 5 2 3 11 15 11 12 10 8 9 11 16 22 28 29 29 27 25 21 18 17 14 11 9 9 9 10 11 13 15 18 21 23 25 27 28 28 29 30 29 29
7 5 6 5 5 3 1 5 14 12 12 13 16 18 19 23 28 28 26 24 21 19 16 14 12 10 10 10 10 10 12 14 16 18 20 22 25 26 28 31 32 30 32 31
Wind_Direction
190 198 200 195 203 247 197 203 201 189 126 217 232 249 246 241 224 242 242 231 219 219 216 225 228 236 239 236 233 233 227 230 241 237 235 238 241 243 244 247 248 246 246 245
172 215 199 147 134 152 180 193 186 130 135 207 231 259 255 248 242 234 238 237 227 217 222 246 248 243 247 245 240 235 232 229 237 242 241 241 245 247 252 254 253 251 250 250
196 193 147 167 162 177 193 194 168 194 155 232 283 266 246 237 244 237 232 236 241 235 234 235 246 246 242 248 243 240 238 235 230 243 242 236 237 244 250 249 253 254 251 251
231 141 179 184 189 169 185 95 138 134 176 230 265 262 177 225 225 213 229 223 228 225 242 238 238 241 235 237 242 240 240 241 237 223 230 238 235 237 247 252 257 256 255 251
162 155 180 179 193 193 155 114 114 135 195 292 185 263 237 146 250 222 196 181 193 196 192 206 216 227 232 235 239 237 238 240 236 219 220 227 241 236 241 251 248 254 257 250
98 358 198 157 72 228 137 122 95 114 191 246 231 223 251 209 227 121 151 172 175 169 171 177 186 184 193 194 213 223 228 233 226 218 221 222 235 235 227 226 243 251 253 249
129 148 116 170 101 136 193 162 144 194 201 245 56 210 246 183 157 220 163 168 159 157 157 157 166 165 163 154 156 181 205 222 229 231 227 225 225 239 232 228 231 246 254 253
182 193 181 168 202 181 194 191 178 190 195 191 88 230 245 23 83 170 168 168 161 156 170 171 179 172 164 162 167 195 208 216 218 220 219 217 215 216 225 226 226 230 246 253
193 173 63 82 52 158 170 202 71 109 43 99 203 247 273 177 178 198 181 180 174 162 165 178 182 179 172 177 184 195 209 220 220 224 226 227 223 219 221 226 230 235 239 245
211 118 21 100 169 165 214 146 152 232 178 225 224 258 244 206 217 191 184 186 174 168 175 179 177 179 176 172 174 174 187 192 189 191 190 187 185 191 197 207 216 223 235 240
163 110 107 167 211 181 159 180 214 241 201 208 243 232 32 288 188 190 187 179 173 170 177 179 175 172 168 166 168 168 163 161 162 161 161 162 165 169 174 177 184 196 210 226
168 101 154 196 47 357 282 212 186 190 202 238 35 262 93 52 164 179 174 166 163 171 170 169 163 162 164 163 154 151 150 147 141 138 140 143 145 147 156 170 184 212 247 265
174 171 115 127 213 210 215 205 217 221 49 197 199 252 139 129 161 175 172 171 172 173 173 170 166 166 165 161 155 150 149 148 146 145 144 146 147 148 157 180 243 287 299 303
179 134 205 209 198 145 208 209 205 218 201 230 223 248 160 186 185 181 184 184 180 182 185 178 176 174 171 164 157 153 153 152 149 145 143 145 146 140 82 344 320 312 311 311
186 203 220 244 56 62 191 189 190 207 225 219 239 245 240 206 198 200 191 189 190 192 192 188 183 179 176 173 167 164 161 159 156 155 152 149 147 111 2 342 337 339 332 327
156 151 116 61 83 90 7 230 202 212 229 236 250 258 248 293 183 193 192 193 202 201 194 189 187 183 182 179 174 169 167 164 160 157 149 133 69 13 353 343 337 336 331 326
158 143 127 168 112 98 284 226 208 221 230 228 238 246 238 193 201 203 202 209 208 201 192 193 190 187 183 180 176 172 168 163 157 154 146 91 346 341 331 328 324 320 317 314
144 129 121 123 122 216 250 65 217 217 234 224 247 256 240 242 218 218 220 218 205 198 195 194 189 186 183 178 175 171 166 162 162 176 291 302 299 302 307 311 313 313 312 311
85 126 162 207 211 299 287 189 183 192 244 235 241 250 250 250 210 230 224 220 215 201 195 189 186 183 178 175 173 172 172 175 196 265 289 298 300 303 305 308 309 309 308 307
127 39 213 150 223 232 346 90 125 129 265 205 221 243 240 151 223 242 219 205 187 185 188 182 178 176 176 173 170 169 170 198 290 286 291 299 303 307 309 310 311 311 311 310
154 182 202 213 225 277 122 143 145 179 256 354 340 300 173 192 239 235 189 178 186 185 175 172 171 172 168 163 165 228 265 249 270 290 299 304 305 307 309 309 311 311 311 310
176 166 178 190 210 250 143 133 185 90 39 339 291 262 192 198 176 165 173 173 169 165 164 166 166 164 167 200 221 220 240 269 289 299 304 306 309 309 308 308 310 310 309 308
208 212 174 201 212 101 182 76 203 240 306 277 233 219 192 170 163 168 160 159 159 161 161 162 165 178 193 199 223 250 275 292 302 307 308 309 309 308 308 307 307 307 305 304
214 177 213 167 196 192 231 236 227 240 256 273 264 223 191 170 166 162 162 160 160 160 162 162 177 191 205 225 253 276 291 300 304 305 306 306 305 305 304 303 303 303 306 308
137 149 172 264 171 301 245 238 244 241 240 235 211 187 179 181 174 170 165 163 163 164 167 177 189 201 221 244 263 277 288 297 302 305 307 308 308 308 307 306 308 308 308 308
187 171 192 220 154 200 231 272 237 236 222 205 191 176 180 181 172 171 168 169 172 176 184 192 204 221 239 252 264 278 291 299 304 309 313 315 317 317 318 318 316 314 312 308